SQ7FZR-13 Weather Reports


Display with metric or nautical units.
time (UTC)temp
F
wind
direction
speed
MPH
gust
MPH
rain 1hr
in
rain 24hr
in
rain mn
in
humidity
%
barometer
mb
20260902124621 68 0 0.0 0.0 0.12 0.14 0.14 73 1020.6
20260902123921 68 22 1.0 3.0 0.00 0.02 0.02 71 1020.9
20260902123221 69 12 5.0 8.0 0.00 0.02 0.02 70 1020.9
20260902122521 71 1 3.0 8.0 0.02 0.02 0.02 68 1020.9
20260902121821 72 181 2.0 7.0 0.02 0.02 0.02 68 1020.7
20260902121120 72 181 1.0 7.0 0.02 0.02 0.02 71 1020.4
20260902120420 71 1 0.0 1.0 0.02 0.02 0.02 74 1020.6
20260902115722 70 1 0.0 1.0 0.02 0.02 0.02 76 1020.7
20260902115021 69 1 0.0 2.0 0.02 0.02 0.02 75 1020.7
20260902113621 68 1 0.0 2.0 0.02 0.02 0.02 72 1021.0
20260902112921 69 17 1.0 3.0 0.02 0.02 0.02 69 1021.1
20260902112220 69 6 4.0 6.0 0.00 0.00 0.00 68 1021.1
20260902111520 70 3 5.0 6.0 0.00 0.00 0.00 66 1021.1
20260902110821 70 1 3.0 5.0 0.00 0.00 0.00 66 1020.8
20260902110121 70 1 3.0 5.0 0.00 0.00 0.00 66 1020.8
20260902105420 70 1 2.0 5.0 0.00 0.00 0.00 67 1020.8
20260902104720 70 1 2.0 5.0 0.00 0.00 0.00 67 1020.8
20260902104020 70 181 0.0 4.0 0.00 0.00 0.00 67 1020.6
20260902103321 70 181 3.0 6.0 0.00 0.00 0.00 66 1020.8
20260902102620 70 181 5.0 6.0 0.00 0.00 0.00 66 1020.7
20260902100520 68 181 3.0 6.0 0.00 0.00 0.00 69 1021.0
20260902095820 68 187 0.0 2.0 0.00 0.00 0.00 70 1021.1
20260902095120 68 16 3.0 8.0 0.00 0.00 0.00 70 1021.0
20260902094420 67 181 2.0 3.0 0.00 0.00 0.00 72 1021.1
20260902093720 67 1 3.0 3.0 0.00 0.00 0.00 72 1021.3
20260902093021 67 1 1.0 3.0 0.00 0.00 0.00 73 1021.2
20260902092320 67 1 0.0 2.0 0.00 0.00 0.00 74 1021.2
20260902090920 66 181 0.0 2.0 0.00 0.00 0.00 74 1021.3
20260902090220 66 181 1.0 2.0 0.00 0.00 0.00 74 1021.1
20260902085520 66 0 0.0 0.0 0.00 0.00 0.00 75 1021.4
20260902084820 65 0 0.0 0.0 0.00 0.00 0.00 76 1021.1
20260902084120 65 181 1.0 2.0 0.00 0.00 0.00 76 1021.2
20260902083421 65 138 2.0 4.0 0.00 0.00 0.00 76 1021.1
20260902082720 65 181 1.0 2.0 0.00 0.00 0.00 76 1021.1
20260902082020 64 181 1.0 2.0 0.00 0.00 0.00 77 1021.1
20260902081320 64 0 0.0 0.0 0.00 0.00 0.00 77 1021.1
20260902080620 64 22 0.0 1.0 0.00 0.00 0.00 78 1021.2
20260902075920 63 179 0.0 2.0 0.00 0.00 0.00 78 1021.1
20260902075220 63 181 1.0 2.0 0.00 0.00 0.00 78 1021.1
20260902074520 63 181 3.0 6.0 0.00 0.00 0.00 78 1020.9
20260902073820 62 181 3.0 6.0 0.00 0.00 0.00 79 1021.1
20260902073120 62 181 1.0 3.0 0.00 0.00 0.00 79 1021.0
20260902071720 62 156 0.0 1.0 0.00 0.00 0.00 81 1020.8
20260902071020 61 181 0.0 1.0 0.00 0.00 0.00 81 1020.9
20260902070320 61 165 0.0 1.0 0.00 0.00 0.00 82 1020.8
20260902065620 61 160 0.0 1.0 0.00 0.00 0.00 82 1020.7
20260902064921 60 181 1.0 3.0 0.00 0.00 0.00 83 1020.6
20260902064221 60 1 2.0 4.0 0.00 0.00 0.00 84 1020.5
20260902063520 59 1 1.0 4.0 0.00 0.00 0.00 83 1020.5
20260902062820 59 172 1.0 7.0 0.00 0.00 0.00 84 1020.5
20260902062120 58 159 2.0 7.0 0.00 0.00 0.00 84 1020.4
20260902061420 58 181 2.0 4.0 0.00 0.00 0.00 84 1020.4
20260902060720 58 181 1.0 3.0 0.00 0.00 0.00 84 1020.3
20260902060020 57 181 0.0 1.0 0.00 0.00 0.00 84 1020.4
20260902054620 57 181 3.0 8.0 0.00 0.00 0.00 85 1020.4
20260902053920 56 168 4.0 8.0 0.00 0.00 0.00 85 1020.5
20260902052520 56 0 0.0 0.0 0.00 0.00 0.00 85 1020.4
20260902051820 56 22 1.0 3.0 0.00 0.00 0.00 85 1020.3
20260902051120 55 181 1.0 2.0 0.00 0.00 0.00 85 1020.2
20260902050420 55 181 2.0 5.0 0.00 0.00 0.00 85 1020.2
20260902045720 55 181 2.0 4.0 0.00 0.00 0.00 85 1020.2
20260902045020 55 181 2.0 4.0 0.00 0.00 0.00 85 1020.0
20260902044320 55 181 2.0 4.0 0.00 0.00 0.00 86 1020.1
20260902043620 54 0 0.0 0.0 0.00 0.00 0.00 86 1020.0
20260902042220 54 0 0.0 0.0 0.00 0.00 0.00 86 1019.8
20260902041519 54 0 0.0 0.0 0.00 0.00 0.00 86 1019.8
20260902040820 54 0 0.0 0.0 0.00 0.00 0.00 85 1019.8
20260902035719 54 0 0.0 0.0 0.00 0.00 0.00 86 1019.9
20260902035019 54 0 0.0 0.0 0.00 0.00 0.00 86 1019.9
20260902034319 54 0 0.0 0.0 0.00 0.00 0.00 86 1019.8
20260902033619 54 0 0.0 0.0 0.00 0.00 0.00 86 1019.8
20260902032919 54 0 0.0 0.0 0.00 0.00 0.00 86 1019.8
20260902032219 54 0 0.0 0.0 0.00 0.00 0.00 86 1019.9
20260902031519 54 0 0.0 0.0 0.00 0.00 0.00 86 1019.9
20260902030819 54 0 0.0 0.0 0.00 0.00 0.00 86 1019.9
20260902025721 54 0 0.0 0.0 0.00 0.00 0.00 86 1019.9
20260902025022 54 0 0.0 0.0 0.00 0.00 0.00 86 1020.0
20260902024321 54 0 0.0 0.0 0.00 0.00 0.00 86 1019.9
20260902023621 54 0 0.0 0.0 0.00 0.00 0.00 86 1020.0
20260902022921 54 0 0.0 0.0 0.00 0.00 0.00 86 1020.0
20260902022221 54 0 0.0 0.0 0.00 0.00 0.00 86 1020.1
20260902020821 54 0 0.0 0.0 0.00 0.00 0.00 86 1020.0
20260902015724 54 0 0.0 0.0 0.00 0.00 0.00 86 1019.9
20260902014324 54 0 0.0 0.0 0.00 0.00 0.00 85 1020.0
20260902012924 54 0 0.0 0.0 0.00 0.00 0.00 85 1019.9
20260902011524 54 0 0.0 0.0 0.00 0.00 0.00 85 1019.9
20260902010824 55 0 0.0 0.0 0.00 0.00 0.00 85 1019.9
20260902005721 55 0 0.0 0.0 0.00 0.00 0.00 84 1019.8
20260902005021 55 0 0.0 0.0 0.00 0.00 0.00 84 1019.8
20260902004321 55 0 0.0 0.0 0.00 0.00 0.00 85 1019.9
20260902003621 55 0 0.0 0.0 0.00 0.00 0.00 84 1019.8
20260902002921 55 0 0.0 0.0 0.00 0.00 0.00 84 1019.8
20260902002221 55 0 0.0 0.0 0.00 0.00 0.00 84 1019.8
20260902001521 55 0 0.0 0.0 0.00 0.00 0.00 84 1019.8
20260902000821 56 0 0.0 0.0 0.00 0.00 0.00 84 1019.8
20260901235621 56 0 0.0 0.0 0.00 0.00 0.00 83 1019.8
20260901234921 56 0 0.0 0.0 0.00 0.00 0.00 83 1019.8
20260901234221 56 0 0.0 0.0 0.00 0.00 0.00 83 1019.7
20260901233521 56 0 0.0 0.0 0.00 0.00 0.00 83 1019.7
20260901231420 56 0 0.0 0.0 0.00 0.00 0.00 83 1019.5
20260901230720 56 0 0.0 0.0 0.00 0.00 0.00 82 1019.4
20260901230021 56 0 0.0 0.0 0.00 0.00 0.00 82 1019.5
20260901224620 56 0 0.0 0.0 0.00 0.00 0.00 82 1019.5
20260901223920 56 0 0.0 0.0 0.00 0.00 0.00 82 1019.4
20260901223220 56 0 0.0 0.0 0.00 0.00 0.00 82 1019.5
20260901222520 56 0 0.0 0.0 0.00 0.00 0.00 82 1019.4
20260901221120 57 0 0.0 0.0 0.00 0.00 0.00 81 1019.5
20260901220420 57 0 0.0 0.0 0.00 0.00 0.00 81 1019.4
20260901215720 57 0 0.0 0.0 0.00 0.00 0.00 81 1019.4
20260901215020 57 0 0.0 0.0 0.00 0.00 0.00 80 1019.5
20260901214320 58 0 0.0 0.0 0.00 0.00 0.00 80 1019.4
20260901213620 58 0 0.0 0.0 0.00 0.00 0.00 79 1019.6
20260901212220 58 135 0.0 0.0 0.00 0.00 0.00 79 1019.6
20260901211520 58 135 0.0 0.0 0.00 0.00 0.00 79 1019.6
20260901210120 59 0 0.0 0.0 0.00 0.00 0.00 78 1019.5
20260901205420 59 0 0.0 0.0 0.00 0.00 0.00 78 1019.6
20260901204020 59 0 0.0 0.0 0.00 0.00 0.00 78 1019.5
20260901203320 59 0 0.0 0.0 0.00 0.00 0.00 78 1019.6
20260901202620 59 181 0.0 1.0 0.00 0.00 0.00 78 1019.5
20260901201920 59 181 0.0 1.0 0.00 0.00 0.00 77 1019.5
20260901201220 59 0 0.0 0.0 0.00 0.00 0.00 77 1019.4
20260901195821 59 0 0.0 0.0 0.00 0.00 0.00 77 1019.6
20260901195120 60 0 0.0 0.0 0.00 0.00 0.00 76 1019.5
20260901194420 60 0 0.0 0.0 0.00 0.00 0.00 76 1019.6
20260901193020 60 0 0.0 0.0 0.00 0.00 0.00 75 1019.7
20260901192320 60 0 0.0 0.0 0.00 0.00 0.00 75 1019.7
20260901191621 60 0 0.0 0.0 0.00 0.00 0.00 74 1019.8
20260901190920 61 0 0.0 0.0 0.00 0.00 0.00 74 1019.8
20260901185520 61 0 0.0 0.0 0.00 0.00 0.00 73 1019.6
20260901184820 62 0 0.0 0.0 0.00 0.00 0.00 72 1019.6
20260901184120 62 0 0.0 0.0 0.00 0.00 0.00 72 1019.7
20260901183420 62 0 0.0 0.0 0.00 0.00 0.00 71 1019.4
20260901182720 63 0 0.0 0.0 0.00 0.00 0.00 70 1019.4
20260901182020 63 0 0.0 0.0 0.00 0.00 0.00 69 1019.3
20260901181320 64 0 0.0 0.0 0.00 0.00 0.00 69 1019.5
20260901180620 64 0 0.0 0.0 0.00 0.00 0.00 68 1019.4
20260901175920 65 0 0.0 0.0 0.00 0.00 0.00 67 1019.2
20260901175220 65 0 0.0 0.0 0.00 0.00 0.00 67 1019.1
20260901174520 65 0 0.0 0.0 0.00 0.00 0.00 66 1019.1
20260901173820 65 0 0.0 0.0 0.00 0.00 0.00 66 1019.1
20260901173120 65 0 0.0 0.0 0.00 0.00 0.00 66 1019.2
20260901172420 66 0 0.0 0.0 0.00 0.00 0.00 66 1019.0
20260901171720 66 0 0.0 0.0 0.00 0.00 0.00 65 1018.9
20260901171020 66 181 1.0 4.0 0.00 0.00 0.00 65 1018.9
20260901170320 66 183 4.0 9.0 0.00 0.00 0.00 64 1018.9
20260901165620 66 199 4.0 9.0 0.00 0.00 0.00 64 1019.0
20260901164920 67 179 2.0 6.0 0.00 0.00 0.00 64 1018.9
20260901162820 67 40 2.0 6.0 0.00 0.00 0.00 63 1018.9
20260901162120 67 181 1.0 4.0 0.00 0.00 0.00 63 1018.8
20260901160720 67 174 2.0 6.0 0.00 0.00 0.00 63 1018.8
20260901160019 67 176 5.0 6.0 0.00 0.04 0.00 63 1018.8
20260901155320 67 123 5.0 8.0 0.00 0.04 0.00 63 1018.7
20260901154620 67 133 3.0 8.0 0.00 0.04 0.00 63 1018.7
20260901153920 67 122 2.0 2.0 0.00 0.04 0.00 62 1018.7
20260901153220 68 179 3.0 11.0 0.00 0.04 0.00 62 1018.4
20260901152520 68 157 2.0 3.0 0.00 0.04 0.00 61 1018.5
20260901151820 68 106 3.0 5.0 0.00 0.04 0.00 62 1018.4
20260901151119 68 160 3.0 6.0 0.00 0.04 0.00 62 1018.4
20260901150419 67 181 4.0 6.0 0.00 0.04 0.00 62 1018.3
20260901145719 67 191 3.0 6.0 0.00 0.04 0.00 62 1018.3
20260901144320 68 181 1.0 2.0 0.00 0.10 0.00 62 1018.3
20260901143619 68 181 1.0 2.0 0.00 0.22 0.00 62 1018.3
20260901142920 68 126 2.0 5.0 0.00 0.24 0.00 62 1018.4
20260901141519 69 164 6.0 10.0 0.00 0.24 0.00 61 1018.3
20260901140820 68 168 6.0 8.0 0.00 0.24 0.00 62 1018.2
20260901134720 68 178 0.0 2.0 0.00 0.31 0.00 63 1018.4
20260901134019 68 191 3.0 8.0 0.00 0.31 0.00 62 1018.3
20260901132620 68 181 5.0 8.0 0.00 0.31 0.00 62 1018.4
20260901131919 68 170 3.0 8.0 0.00 0.31 0.00 62 1018.4
20260901131219 68 181 5.0 7.0 0.00 0.31 0.00 62 1018.1
20260901130519 68 173 5.0 7.0 0.00 0.31 0.00 63 1018.2